Regional Weather Roundup
Issued by NWS Newport/Morehead, NC

Current Version | Previous Version | Text Only | Print | Product List | Glossary On
Versions: 1 2 3 4 5 6 7 8 9 10 11 12 13 14 15 16 17 18 19 20 21 22 23 24 25 26 27 28 29 30 31 32 33 34 35 36 37 38 39 40 41 42 43 44 45 46 47 48 49 50
917
ASUS42 KMHX 120025
RWRMHX
WEATHER ROUNDUP FOR EASTERN NORTH CAROLINA
NATIONAL WEATHER SERVICE NEWPORT/MOREHEAD CITY NC
700 PM EST THU FEB 11 2016

NOTE: "FAIR" INDICATES FEW OR NO CLOUDS BELOW 12,000 FEET
WITH NO SIGNIFICANT WEATHER AND/OR OBSTRUCTIONS TO VISIBILITY

NCZ015>017-031-032-045>047-102-103-120100-
NORTH COAST

CITY           SKY/WX    TMP DP  RH WIND       PRES   REMARKS
EDENTON        CLEAR     33  11  40 CALM      30.26R
ELIZABETH CITY CLEAR     30  11  45 W5        30.24R
KITTY HAWK     CLEAR     33  10  37 NW7       30.22R
MANTEO         CLEAR     34  11  38 NW7       30.25R

$$

NCZ045>047-081-094-103-104-120100-
CENTRAL COAST

CITY           SKY/WX    TMP DP  RH WIND       PRES   REMARKS
FRISCO         CLEAR     37  13  37 NW8       30.24R
SWANQUARTER      N/A     34 N/A N/A NW3       30.24R

$$

NCZ095-097-098-100-101-120100-
SOUTHERN COAST

CITY           SKY/WX    TMP DP  RH WIND       PRES   REMARKS
BEAUFORT       CLEAR     36  16  44 NW7       30.25R
CEDAR ISLAND     N/A     39 N/A N/A W12G17    30.30R
JACKSONVILLE   CLEAR     37  17  44 CALM      30.24R
PINEY ISLAND   CLEAR    N/A N/A N/A NW8       30.24R
WILMINGTON     CLEAR     37  22  54 CALM      30.24R


$$

NCZ011>013-027>030-043-044-078>080-089-090>093-098-120100-
COASTAL PLAIN

CITY           SKY/WX    TMP DP  RH WIND       PRES   REMARKS
AHOSKIE        CLEAR     30   4  32 CALM      30.25R
CLINTON        CLEAR     35  20  54 CALM      30.24R
ELIZABETHTOWN  CLEAR     37  21  54 CALM      30.24R
GOLDSBORO      CLEAR     36  10  35 N5        30.22R
GREENVILLE     CLEAR     32  10  40 CALM      30.26R
HAVELOCK       CLEAR     33  17  51 CALM      30.25R
KENANSVILLE    CLEAR     30  21  70 CALM      30.25R
KINSTON        CLEAR     30  18  59 NW3       30.25R
NEW BERN       CLEAR     32  16  51 CALM      30.25R
RICHLANDS      CLEAR     30  19  64 CALM      30.25R
ROCKY MOUNT    CLEAR     30  14  51 CALM      30.24R
WASHINGTON     CLEAR     32  11  41 CALM      30.26R
WHITEVILLE     CLEAR     38  24  57 CALM      30.23R

$$

AMZ130-135-150-152-154-156-158-170-250-252-270-ANZ085-086-088-633-658-670-120100-
MARINE OBSERVATIONS

STATION/POSITION TIME  TEMP    WIND        PRES    WAVE   SWELL
                       AIR SEA DIR/SP/G            HT/PER HT/PER
                 (UTC) (F)     (DEG/KT/KT) (MB)    (FT/S) (FT/S)
CHESAPEAKE LIGHT 0000   33     290/ 18/ 20 1024.2
64 E VA BEACH    2350   35 48  300/ 19/ 23 1022.6    5/ 6   2/ 9
DUCK             0000   35     300/  8/ 12 1023.3
2 E DUCK         0011      44                N/A     2/11
OREGON INLET     0000   34 41  280/  6/ 11 1023.9
13E OREGON INLT  2300      47                N/A     4/ 7   2/11
HATTERAS CG      0000   38 45  300/ 15/ 18 1023.5
DIAMOND BUOY     2350   40 70  300/ 14/ 17 1023.7    4/ 4   2/ 8
CAPE LOOKOUT     NOT AVBL
BEAUFORT LAB     0000   38 44  330/  3/  5 1023.2
30 SE NEW RVR IN 0008   45 58              1023.9
30 SE NEW RVR IN 2325      58                N/A     4/ 8
27 SE WRIGHTSVLE 0008   45 61  300/  4/ 10 1022.5
5 SE WRIGHTSVLE  2308   45 50  320/ 10/ 14 1023.5
225 S CAPE HAT   2350   54 68  300/ 17/ 21   N/A     8/ 8   5/ 8
41 SE CHARLESTON 2350   51 64  230/  6/ 10 1023.1    2/ 6   2/ 6

$$




USA.gov is the U.S. government's official web portal to all federal, state and local government web resources and services.